Location: Evergreen Manor
(41.4083°N, 81.4939°W)
Time: 21:18:31
(UTC+00:00)

CZ-4C R/B - Pass Details

Date: 11 December 2019
Orbit: 646 x 1356 km, 63.4° (Epoch: 24 January)

Event Time Altitude Azimuth Distance (km) Brightness Sun altitude
Exits shadow 11:22:22 18° 277° (W) 2,660 4.1 -14.4°
Maximum altitude 11:25:03 22° 251° (WSW) 2,516 4.2 -13.9°
Drops below altitude 10° 11:30:55 10° 206° (SSW) 3,376 5.2 -12.9°
Sets 11:34:38 0° 192° (SSW) 4,367 6.0 -12.2°
